• In Czech Republic
  • List of Countries
  • For 7 days
  • Water Temperature
  • Satellite Maps
  • Weather Map
  • Weather Widgets
  • user-avatar
    Login

    Hourly Weather Saurimo

    Today, 14 December, Thursday

    Time Temperature Precipitation Wind Pressure Humidity
    00:00 +21°C° 0 mm 1 mps 671 mmHg 95%
    01:00 +20°C° 0 mm 1 mps 670 mmHg 95%
    02:00 +20°C° 0.1 mm 1 mps 670 mmHg 95%
    03:00 +18°C° 0.1 mm 0 mps 670 mmHg 96%
    04:00 +18°C° 0.1 mm 0 mps 670 mmHg 96%
    05:00 +18°C° 0.1 mm 0 mps 670 mmHg 95%
    06:00 +19°C° 0.1 mm 0 mps 671 mmHg 94%
    07:00 +20°C° 0.1 mm 0 mps 671 mmHg 92%
    08:00 +21°C° 0.5 mm 0 mps 671 mmHg 88%
    09:00 +23°C° 0.5 mm 0 mps 671 mmHg 84%
    10:00 +26°C° 0.5 mm 1 mps 671 mmHg 79%
    11:00 +27°C° 0.3 mm 1 mps 671 mmHg 73%
    12:00 +28°C° 0.3 mm 2 mps 671 mmHg 67%
    13:00 +29°C° 0.3 mm 2 mps 670 mmHg 61%
    14:00 +29°C° 0.6 mm 2 mps 670 mmHg 66%
    15:00 +28°C° 0.6 mm 2 mps 669 mmHg 72%
    16:00 +27°C° 0.6 mm 2 mps 669 mmHg 77%
    17:00 +26°C° 0.5 mm 1 mps 669 mmHg 82%
    18:00 +24°C° 0.5 mm 1 mps 669 mmHg 88%
    19:00 +20°C° 0.5 mm 0 mps 669 mmHg 93%
    20:00 +22°C° 0.8 mm 1 mps 669 mmHg 94%
    21:00 +21°C° 0.8 mm 1 mps 669 mmHg 95%
    22:00 +21°C° 0.8 mm 1 mps 670 mmHg 96%
    23:00 +21°C° 0 mm 1 mps 669 mmHg 96%

    Tomorrow, 15 December, Friday

    Time Temperature Precipitation Wind Pressure Humidity
    00:00 +21°C° 0 mm 1 mps 669 mmHg 96%
    01:00 +20°C° 0 mm 1 mps 669 mmHg 96%
    02:00 +20°C° 0 mm 1 mps 669 mmHg 97%
    03:00 +20°C° 0 mm 1 mps 669 mmHg 97%
    04:00 +18°C° 0 mm 0 mps 669 mmHg 97%
    05:00 +19°C° 0 mm 0 mps 669 mmHg 95%
    06:00 +19°C° 0 mm 0 mps 670 mmHg 94%
    07:00 +20°C° 0 mm 0 mps 671 mmHg 92%
    08:00 +22°C° 0.3 mm 0 mps 671 mmHg 85%
    09:00 +26°C° 0.3 mm 1 mps 671 mmHg 78%
    10:00 +28°C° 0.3 mm 1 mps 671 mmHg 70%
    11:00 +28°C° 1 mm 1 mps 671 mmHg 73%
    12:00 +28°C° 1 mm 2 mps 670 mmHg 75%
    13:00 +28°C° 1 mm 2 mps 669 mmHg 77%
    14:00 +27°C° 1.4 mm 1 mps 669 mmHg 81%
    15:00 +26°C° 1.4 mm 1 mps 669 mmHg 86%
    16:00 +26°C° 1.4 mm 1 mps 668 mmHg 90%
    17:00 +24°C° 1.3 mm 1 mps 669 mmHg 91%
    18:00 +23°C° 1.3 mm 1 mps 669 mmHg 93%
    19:00 +22°C° 1.3 mm 1 mps 669 mmHg 94%
    20:00 +22°C° 0.2 mm 1 mps 670 mmHg 95%
    21:00 +22°C° 0.2 mm 1 mps 670 mmHg 96%
    22:00 +21°C° 0.2 mm 1 mps 670 mmHg 96%
    23:00 +21°C° 0.2 mm 1 mps 670 mmHg 96%

    Day after tomorrow, 16 December, Saturday

    Time Temperature Precipitation Wind Pressure Humidity
    00:00 +21°C° 0.2 mm 1 mps 669 mmHg 97%
    01:00 +21°C° 0.2 mm 1 mps 669 mmHg 97%
    02:00 +21°C° 0.1 mm 1 mps 669 mmHg 97%
    03:00 +20°C° 0.1 mm 1 mps 669 mmHg 97%
    04:00 +20°C° 0.1 mm 1 mps 668 mmHg 97%
    05:00 +21°C° 0 mm 1 mps 669 mmHg 96%
    06:00 +22°C° 0 mm 1 mps 670 mmHg 94%
    07:00 +20°C° 0 mm 0 mps 670 mmHg 93%
    08:00 +24°C° 0.9 mm 1 mps 670 mmHg 90%
    09:00 +25°C° 0.9 mm 1 mps 671 mmHg 86%
    10:00 +26°C° 0.9 mm 1 mps 671 mmHg 83%
    11:00 +27°C° 1 mm 1 mps 670 mmHg 82%
    12:00 +27°C° 1 mm 2 mps 670 mmHg 81%
    13:00 +27°C° 1 mm 2 mps 669 mmHg 80%
    14:00 +27°C° 0.6 mm 2 mps 669 mmHg 80%
    15:00 +27°C° 0.6 mm 2 mps 669 mmHg 80%
    16:00 +27°C° 0.6 mm 2 mps 669 mmHg 81%
    17:00 +25°C° 1.1 mm 2 mps 669 mmHg 85%
    18:00 +23°C° 1.1 mm 2 mps 669 mmHg 90%
    19:00 +21°C° 1.1 mm 2 mps 669 mmHg 95%
    20:00 +22°C° 0.5 mm 1 mps 670 mmHg 95%
    21:00 +21°C° 0.5 mm 1 mps 670 mmHg 95%
    22:00 +21°C° 0.5 mm 1 mps 671 mmHg 96%
    23:00 +21°C° 0.3 mm 1 mps 670 mmHg 96%

    17 December, Sunday

    Time Temperature Precipitation Wind Pressure Humidity
    00:00 +21°C° 0.3 mm 1 mps 670 mmHg 97%
    01:00 +21°C° 0.3 mm 1 mps 669 mmHg 97%
    02:00 +20°C° 0.1 mm 1 mps 669 mmHg 97%
    03:00 +20°C° 0.1 mm 1 mps 669 mmHg 97%
    04:00 +20°C° 0.1 mm 1 mps 669 mmHg 97%
    05:00 +20°C° 0 mm 1 mps 670 mmHg 96%
    06:00 +21°C° 0 mm 1 mps 670 mmHg 95%
    07:00 +21°C° 0 mm 1 mps 671 mmHg 94%
    08:00 +23°C° 0 mm 1 mps 671 mmHg 85%
    09:00 +25°C° 0 mm 2 mps 671 mmHg 77%
    10:00 +26°C° 0 mm 2 mps 672 mmHg 68%
    11:00 +27°C° 0 mm 2 mps 671 mmHg 63%
    12:00 +29°C° 0 mm 2 mps 670 mmHg 58%
    13:00 +30°C° 0 mm 2 mps 670 mmHg 52%
    14:00 +29°C° 0 mm 2 mps 670 mmHg 56%
    15:00 +29°C° 0 mm 2 mps 669 mmHg 61%
    16:00 +29°C° 0 mm 1 mps 669 mmHg 65%
    17:00 +27°C° 0 mm 1 mps 669 mmHg 69%
    18:00 +25°C° 0 mm 1 mps 669 mmHg 74%
    19:00 +23°C° 0 mm 1 mps 670 mmHg 78%
    20:00 +23°C° 0.3 mm 1 mps 670 mmHg 81%
    21:00 +22°C° 0.3 mm 1 mps 670 mmHg 84%
    22:00 +22°C° 0.3 mm 1 mps 670 mmHg 87%
    23:00 +21°C° 0.6 mm 1 mps 670 mmHg 89%

    18 December, Monday

    Time Temperature Precipitation Wind Pressure Humidity
    00:00 +21°C° 0.6 mm 1 mps 670 mmHg 91%
    01:00 +20°C° 0.6 mm 1 mps 669 mmHg 93%
    02:00 +20°C° 0.2 mm 1 mps 669 mmHg 94%
    03:00 +20°C° 0.2 mm 1 mps 669 mmHg 94%
    04:00 +20°C° 0.2 mm 1 mps 669 mmHg 94%
    05:00 +20°C° 0.1 mm 1 mps 669 mmHg 94%
    06:00 +21°C° 0.1 mm 1 mps 670 mmHg 93%
    07:00 +21°C° 0.1 mm 1 mps 671 mmHg 92%
    08:00 +23°C° 0.1 mm 1 mps 671 mmHg 85%
    09:00 +24°C° 0.1 mm 1 mps 671 mmHg 78%
    10:00 +26°C° 0.1 mm 1 mps 671 mmHg 72%
    11:00 +27°C° 0.1 mm 1 mps 671 mmHg 66%
    12:00 +28°C° 0.1 mm 1 mps 670 mmHg 61%
    13:00 +29°C° 0.1 mm 2 mps 670 mmHg 56%
    14:00 +28°C° 0.3 mm 1 mps 670 mmHg 62%
    15:00 +28°C° 0.3 mm 1 mps 669 mmHg 68%
    16:00 +27°C° 0.3 mm 1 mps 669 mmHg 74%
    17:00 +26°C° 0.1 mm 1 mps 669 mmHg 79%
    18:00 +24°C° 0.1 mm 1 mps 669 mmHg 83%
    19:00 +22°C° 0.1 mm 1 mps 669 mmHg 88%
    20:00 +22°C° 0.1 mm 1 mps 669 mmHg 89%
    21:00 +22°C° 0.1 mm 1 mps 670 mmHg 91%
    22:00 +21°C° 0.1 mm 1 mps 670 mmHg 92%
    23:00 +21°C° 0.4 mm 1 mps 670 mmHg 94%

    19 December, Tuesday

    Time Temperature Precipitation Wind Pressure Humidity
    00:00 +21°C° 0.4 mm 1 mps 669 mmHg 95%
    01:00 +20°C° 0.4 mm 1 mps 669 mmHg 96%
    02:00 +20°C° 0.1 mm 1 mps 669 mmHg 96%
    03:00 +20°C° 0.1 mm 1 mps 669 mmHg 96%
    04:00 +18°C° 0.1 mm 0 mps 669 mmHg 96%
    05:00 +20°C° 0 mm 1 mps 669 mmHg 95%
    06:00 +21°C° 0 mm 1 mps 670 mmHg 94%
    07:00 +21°C° 0 mm 1 mps 670 mmHg 93%
    08:00 +23°C° 0.2 mm 1 mps 670 mmHg 85%
    09:00 +25°C° 0.2 mm 1 mps 671 mmHg 78%
    10:00 +27°C° 0.2 mm 2 mps 671 mmHg 70%
    11:00 +27°C° 0.6 mm 2 mps 670 mmHg 71%
    12:00 +27°C° 0.6 mm 2 mps 669 mmHg 72%
    13:00 +27°C° 0.6 mm 2 mps 669 mmHg 74%
    14:00 +27°C° 0.7 mm 2 mps 669 mmHg 75%
    15:00 +27°C° 0.7 mm 2 mps 668 mmHg 77%
    16:00 +26°C° 0.7 mm 2 mps 668 mmHg 79%
    17:00 +25°C° 1.2 mm 2 mps 668 mmHg 84%
    18:00 +23°C° 1.2 mm 2 mps 668 mmHg 89%
    19:00 +20°C° 1.2 mm 2 mps 669 mmHg 94%
    20:00 +20°C° 0.4 mm 2 mps 669 mmHg 95%
    21:00 +20°C° 0.4 mm 2 mps 669 mmHg 96%
    22:00 +19°C° 0.4 mm 2 mps 670 mmHg 97%
    23:00 +19°C° 0.7 mm 2 mps 670 mmHg 97%
    Show more